Wind_Speed
8 10 12 12 9 11 11 11 11 11 13 14 14 15 17 19 20 17 17 20 19 31
10 11 8 7 7 6 7 9 11 13 16 16 16 17 19 18 17 18 19 20 20 26
7 6 7 6 6 6 8 8 8 10 11 16 17 17 17 16 16 15 19 15 16 23
9 9 7 6 7 9 11 13 14 16 17 15 16 16 17 18 18 17 20 18 18 17
7 5 5 7 8 10 13 16 16 18 21 20 19 16 14 16 18 14 18 20 22 26
9 9 8 7 6 6 7 5 7 6 8 14 16 16 16 15 15 15 14 14 21 24
7 7 7 6 2 1 3 5 1 4 3 9 12 11 14 13 12 13 8 5 3 10
9 7 6 5 2 3 6 8 10 8 7 9 11 9 10 8 5 11 17 14 15 13
10 9 6 5 5 7 13 15 15 14 15 16 15 12 12 19 22 18 17 16 15 14
11 11 10 9 9 11 17 16 18 19 18 19 19 18 21 18 18 17 16 15 13 13
14 14 14 10 12 14 16 15 16 16 15 16 16 15 15 15 16 18 17 14 12 11
15 15 15 13 15 17 18 18 18 18 20 21 19 16 18 19 20 20 20 16 13 11
16 15 16 15 18 18 18 19 18 19 19 20 22 19 17 16 17 17 16 13 11 10
18 17 16 18 20 21 22 21 21 22 21 21 20 19 17 15 15 15 14 13 11 9
Wind_Direction
201 200 197 212 219 224 222 230 236 227 226 220 219 216 226 230 236 235 231 229 236 230
198 190 188 186 195 199 224 229 226 230 236 236 225 226 231 235 240 229 230 231 242 236
178 182 191 193 220 229 236 239 244 242 239 231 228 226 220 230 236 239 229 236 247 232
186 192 192 212 240 252 259 255 246 243 240 240 232 227 225 231 235 244 241 242 235 233
208 210 231 230 258 271 272 272 267 253 240 235 232 222 237 234 241 239 250 257 244 242
212 213 211 231 247 278 282 267 258 247 239 233 232 223 222 236 234 242 258 250 253 239
213 196 191 197 177 59 96 60 143 207 195 193 183 201 204 221 234 243 242 250 229 231
173 169 167 158 152 94 110 116 99 137 146 168 172 195 192 176 160 127 123 122 144 155
172 167 167 175 149 113 126 108 104 109 114 112 111 116 120 127 129 133 141 148 149 147
161 154 145 148 130 115 130 120 113 105 104 109 105 109 128 132 140 144 149 148 142 134
158 155 141 146 140 127 133 135 130 127 126 124 123 134 134 140 134 130 122 117 117 126
157 153 138 153 147 133 132 127 122 121 122 118 115 123 130 134 132 128 123 122 125 125
155 147 144 150 148 143 140 134 133 122 116 113 114 117 120 127 131 133 128 124 116 111
154 148 149 148 145 144 138 131 126 123 129 129 128 130 131 129 127 125 124 125 124 114
Height
1470 1473 1476 1478 1479 1481 1482 1483 1484 1485 1487 1490 1493 1496 1498 1499 1501 1503 1506 1509 1512 1514
1471 1473 1475 1477 1479 1481 1482 1482 1482 1484 1485 1487 1490 1493 1495 1497 1499 1501 1504 1507 1509 1511
1472 1473 1474 1475 1477 1479 1480 1481 1481 1481 1482 1484 1487 1490 1492 1494 1496 1499 1501 1505 1507 1508
1471 1472 1473 1475 1477 1477 1477 1477 1478 1479 1480 1481 1483 1487 1490 1492 1495 1497 1499 1501 1503 1505
1471 1472 1473 1474 1475 1475 1474 1473 1473 1474 1475 1478 1480 1485 1487 1490 1492 1495 1497 1498 1500 1502
1470 1471 1472 1473 1474 1473 1472 1471 1470 1471 1472 1475 1478 1482 1485 1488 1491 1493 1495 1496 1497 1498
1468 1470 1471 1473 1474 1472 1471 1470 1470 1470 1471 1473 1477 1481 1484 1487 1489 1491 1492 1494 1498 1499
1468 1470 1472 1473 1474 1473 1472 1472 1472 1471 1473 1475 1479 1481 1483 1486 1488 1490 1494 1497 1501 1504
1468 1470 1472 1474 1474 1474 1475 1476 1474 1475 1477 1478 1480 1483 1485 1488 1490 1494 1497 1500 1504 1507
1468 1470 1472 1474 1475 1475 1477 1480 1480 1481 1481 1483 1484 1487 1490 1493 1495 1498 1502 1504 1507 1509
1468 1471 1472 1475 1477 1477 1479 1481 1482 1484 1486 1487 1489 1492 1495 1497 1499 1502 1506 1509 1511 1513
1469 1471 1473 1476 1478 1480 1482 1484 1486 1487 1489 1491 1493 1497 1499 1501 1504 1506 1509 1511 1513 1515
1469 1472 1474 1477 1480 1482 1484 1486 1489 1492 1495 1497 1498 1502 1505 1507 1508 1509 1511 1514 1516 1518
1470 1474 1477 1479 1482 1485 1487 1490 1493 1495 1498 1501 1503 1506 1508 1510 1512 1513 1515 1517 1519 1520